Location: Brégy
(49.0822°N, 2.8654°E)
Time: 05:32:16
(UTC+00:00)

Daily predictions for brighter satellites

Satellite Brightness Start Highest point End
(mag) Time Altitude Azimuth Time Altitude Azimuth Time Altitude Azimuth
Cosmos 1703 Rocket 3.9 00:03:20 43° SW 00:04:24 56° WNW 00:08:49 10° N
Cosmos 1980 Rocket 4.2 00:00:02 10° W 00:04:37 25° NW 00:09:14 10° NNE
SL-19 R/B 4.3 00:07:24 53° W 00:07:24 53° W 00:10:16 10° NNW
Cosmos 2322 Rocket 2.2 00:05:15 37° SW 00:07:33 80° WNW 00:13:13 10° NNE
Okean 1-7 3.6 00:06:47 39° WSW 00:07:52 48° WNW 00:12:09 10° N
Cosmos 923 Rocket 4.3 00:03:43 10° NNW 00:08:53 52° WSW 00:10:11 42° SSW
Cosmos 1818 3.7 00:03:57 10° NW 00:09:27 74° NE 00:12:49 24° SE
Cosmos 1242 Rocket 3.6 00:06:56 10° N 00:10:20 37° ENE 00:11:04 33° ESE
USA 267 4.0 00:10:32 30° SW 00:11:21 31° SW 00:17:03 10° WNW
ALOS 2 4.0 00:11:03 23° WSW 00:11:38 24° W 00:15:13 10° NW
ATLAS CENTAUR R/B 2.4 00:07:50 10° NNW 00:12:39 53° NE 00:16:20 16° ESE
Cosmos 2151 Rocket 4.4 00:10:00 10° N 00:14:13 42° ENE 00:15:52 29° SE
Cosmos 1782 Rocket 4.0 00:13:28 10° NNW 00:17:39 47° W 00:18:18 43° WSW
ERS-2 4.0 00:16:49 10° NNW 00:19:39 22° WNW 00:20:41 19° W
Okean 2 Rocket 3.6 00:15:35 10° N 00:20:02 56° ENE 00:21:36 36° SE
Cosmos 372 Rocket 4.1 00:19:41 42° SSE 00:21:08 59° ESE 00:26:13 10° NNE
ADEOS Rocket 3.5 00:20:35 33° SW 00:22:13 40° W 00:27:37 10° NNW
Cosmos 1953 4.1 00:21:49 10° NNE 00:25:16 26° ENE 00:27:21 17° ESE
Cosmos 1844 Rocket 2.9 00:20:20 10° NW 00:25:46 53° WSW 00:27:18 40° SSW
Cosmos 1844 3.8 00:21:12 10° NW 00:26:56 61° WSW 00:28:56 39° S
Meteor 1-21 4.3 00:26:51 37° S 00:29:12 73° E 00:35:01 10° NNE
Cosmos 2112 Rocket 4.3 00:24:32 10° NNW 00:29:44 53° WSW 00:31:09 41° SSW
Cosmos 1937 Rocket 3.4 00:29:41 42° SSW 00:31:32 84° WNW 00:36:50 10° NNE
NOSS 3-1 (A) 4.5 00:25:35 10° NW 00:32:40 61° NE 00:41:07 10° ESE
Cosmos 1758 3.3 00:28:41 10° N 00:32:40 79° E 00:33:27 55° SSE
Cosmos 1680 Rocket 4.0 00:28:04 10° NW 00:33:05 43° WSW 00:34:17 37° SW
Sich 1 Rocket 3.4 00:30:18 10° N 00:34:43 85° W 00:35:49 51° S
Resurs 1-4 Rocket 3.6 00:32:12 10° NE 00:36:35 26° E 00:39:18 18° SE
Cosmos 1674 2.8 00:36:19 53° SE 00:36:50 59° E 00:40:31 10° NNE
Cosmos 1470 3.2 00:33:15 10° NNW 00:36:58 43° W 00:37:14 43° WSW
SL-08 ROCKET BODY 4.5 00:32:48 10° NNW 00:38:39 61° W 00:40:57 36° SSW
CZ-4C R/B 3.2 00:32:26 10° NW 00:39:25 69° NE 00:47:45 10° SE
Okean 2 3.3 00:39:06 54° SSE 00:39:56 75° E 00:44:02 10° NNE
Cosmos 2219 Rocket 2.4 00:39:12 36° S 00:41:15 57° ESE 00:46:44 10° NE
Cosmos 1707 2.7 00:40:54 57° SW 00:41:30 69° W 00:45:23 10° N
SL-16 R/B 3.3 00:38:31 17° WSW 00:42:20 37° NW 00:47:37 10° NNE
NOSS 3-1 (C) 4.0 00:36:56 10° NW 00:44:17 88° SW 00:53:01 10° SE
Cosmos 1437 Rocket 3.8 00:41:26 10° N 00:45:01 38° ENE 00:46:36 25° ESE
Cosmos 1726 4.2 00:43:03 10° NW 00:45:19 16° W 00:45:19 16° W
Cosmos 1300 Rocket 4.0 00:41:18 10° NNW 00:45:27 45° W 00:46:12 40° WSW
COSMOS 2428 3.3 00:44:03 31° SSE 00:46:17 46° ESE 00:51:42 10° NE
ATLAS 3B R/B 3.6 00:40:09 10° NW 00:46:37 34° WSW 00:48:51 29° SW
ASTEX 1 3.7 00:42:36 10° N 00:47:22 55° WNW 00:49:02 37° SW
Cosmos 1898 Rocket 4.2 00:48:35 26° WSW 00:51:12 47° WNW 00:56:21 10° NNE
MOZ.5/SAFIR/RUBIN 5/SL-8 3.7 00:53:59 35° SSE 00:56:00 87° E 01:00:46 10° NNW
Cosmos 1626 2.0 00:55:39 60° S 00:56:15 84° E 00:59:57 10° N
S3M 4.2 00:54:26 28° S 00:57:55 70° E 01:04:17 10° NNE
Cosmos 2237 Rocket 3.9 00:57:20 15° SE 01:00:27 24° ESE 01:04:51 10° NE
Cosmos 2333 4.2 01:01:59 32° SW 01:04:39 74° WNW 01:10:19 10° NNE
KORONAS-FOTON 3.9 01:03:59 49° SW 01:04:42 60° WNW 01:08:29 10° N
ADEOS II 3.8 01:00:45 10° NE 01:05:03 25° E 01:08:46 12° SE
Cosmos 1553 Rocket 4.0 01:02:58 32° SSW 01:05:55 70° WNW 01:12:05 10° N
Cosmos 1300 3.6 01:06:10 10° N 01:09:49 44° ENE 01:11:50 23° SE
Cosmos 1386 Rocket 4.4 01:04:47 10° NNW 01:10:49 77° W 01:14:06 28° S
Cosmos 405 Rocket 2.6 01:10:48 48° S 01:11:42 76° E 01:15:27 10° NNE
Cosmos 2221 Rocket 3.8 01:10:51 38° SW 01:12:19 58° WNW 01:16:42 10° N
Okean 1 Rocket 3.0 01:10:24 10° N 01:14:49 89° E 01:16:47 33° S
IDEFIX/ARIANE 42P 4.2 01:12:22 10° NE 01:16:46 26° E 01:20:54 11° SSE
USA 215 4.3 01:10:41 10° ENE 01:16:50 45° N 01:23:00 10° WNW
Cosmos 2360 Rocket 3.1 01:13:37 19° WSW 01:17:09 41° NW 01:22:30 10° NNE
Cosmos 1238 Rocket 3.0 01:14:39 10° NNW 01:17:10 34° W 01:17:10 34° W
ATLAS 5 CENTAUR R/B 3.1 01:05:22 10° NW 01:17:34 56° WSW 01:19:49 28° S
Cosmos 1461 2.8 01:15:30 10° NW 01:19:39 86° NE 01:23:29 13° SE
Cosmos 1908 3.6 01:16:17 10° NNW 01:19:55 45° W 01:20:34 40° SW
Meteor 2-10 Rocket 4.2 01:16:26 10° N 01:22:10 60° ENE 01:27:14 12° SSE
CZ-2D R/B 2.4 01:21:59 10° NNE 01:27:24 65° ESE 01:30:34 25° S
Cosmos 2278 Rocket 2.3 01:21:42 10° NNW 01:27:25 77° ENE 01:33:05 10° SSE
Cosmos 1048 Rocket 4.0 01:28:18 10° NNW 01:33:27 63° WSW 01:36:29 24° S
Cosmos 1867 3.7 01:30:59 29° SSW 01:33:47 66° SE 01:39:15 10° NE
SME Rocket 3.2 01:32:57 35° SSW 01:34:15 53° WSW 01:38:38 10° NNW
Gblst 52 Del rocket 4.1 01:30:00 19° WSW 01:34:20 85° SSE 01:39:52 10° ENE
Cosmos 2333 Rocket 2.8 01:33:18 21° WSW 01:36:48 49° NW 01:42:18 10° NNE
Cosmos 1745 Rocket 4.3 01:34:07 10° NNW 01:40:08 50° W 01:43:37 24° SSW
Cosmos 1125 Rocket 3.6 01:37:42 26° S 01:40:38 70° ESE 01:45:49 10° NNE
Thor Agena Rocket 4.0 01:37:58 10° N 01:43:04 52° WNW 01:46:03 24° SW
SL-16 R/B 2.5 01:37:47 15° SSE 01:43:06 83° WSW 01:49:24 10° NNW
YAOGAN 11 4.2 01:39:55 18° SSE 01:43:12 82° ENE 01:47:42 10° NNW
SL-16 R/B 4.4 01:39:53 10° SE 01:43:31 18° E 01:47:11 10° ENE
Cosmos 2322 4.1 01:40:26 23° SW 01:43:57 57° WNW 01:49:37 10° NNE
Cosmos 1943 Rocket 3.8 01:38:56 10° NNW 01:44:09 36° NE 01:49:22 10° ESE
Cosmos 1242 Rocket 4.4 01:42:17 10° NW 01:44:42 17° W 01:44:51 17° W
Cosmos 1674 Rocket 4.3 01:43:30 26° WSW 01:45:19 39° WNW 01:49:25 10° N
EO 1 Del DPAF 4.3 01:43:15 10° NNE 01:46:30 34° E 01:48:39 18° SSE
Cosmos 2298 Rocket 4.0 01:45:28 25° SSW 01:48:36 82° ESE 01:53:56 10° NNE
USA 290 2.6 01:48:51 35° WSW 01:49:51 53° WNW 01:53:03 10° NNE
Cosmos 1980 4.1 01:46:55 21° S 01:50:36 58° ESE 01:56:09 10° NE
ATLAS CENTAUR R/B 2.6 01:47:05 10° WNW 01:51:14 28° WSW 01:52:16 26° SW
Cosmos 2322 Rocket 4.2 01:48:31 10° W 01:52:33 20° NW 01:56:35 10° N
Cosmos 494 Rocket 4.3 01:51:19 10° NW 01:56:10 44° WSW 01:59:08 22° SSW
AQUA 3.9 01:51:33 10° NNE 01:56:20 76° ESE 01:59:34 21° S
USA 229 DEB 3.9 01:49:54 10° NW 01:57:12 73° SW 02:05:00 10° SSE
USA 229 3.9 01:50:00 10° NW 01:57:18 73° SW 02:05:05 10° SSE
SL-14 R/B 3.7 01:56:23 28° SW 01:58:05 46° WNW 02:01:52 10° N
Cosmos 1455 Rocket 3.0 01:54:52 10° N 01:59:22 89° W 02:03:00 15° S
Cosmos 1953 3.4 01:58:03 10° NNW 02:01:34 29° W 02:02:56 24° SW
GP-B 3.8 01:58:25 10° NNW 02:02:34 39° W 02:04:48 23° SW
NOSS 2-2 (C) 4.2 01:59:35 10° NW 02:04:35 69° SW 02:11:37 10° SSE
MSX 4.5 02:00:39 10° NNE 02:06:17 52° E 02:11:46 11° S
Helios 1A 3.0 02:02:52 12° SSE 02:06:45 89° ENE 02:10:59 10° NNW
Cosmos 371 Rocket 3.3 02:04:37 22° SSW 02:07:44 80° WNW 02:12:38 10° NNE
NPP 3.7 02:03:50 10° N 02:09:13 70° WNW 02:13:05 19° SSW
UNK 3.9 02:07:23 19° S 02:10:31 53° W 02:15:03 10° NNW
CZ-4 R/B 4.2 02:08:22 10° N 02:12:54 49° WNW 02:15:53 20° SW
Meteor 1-28 Rocket 3.1 02:10:52 16° S 02:13:45 72° WSW 02:17:30 10° NNW
Cosmos 1975 Rocket 3.0 02:11:29 20° SSW 02:14:29 78° W 02:18:58 10° N
USA 306 4.2 02:13:37 17° S 02:15:52 28° SE 02:19:27 10° ENE
USA 307 4.4 02:13:44 16° S 02:16:01 25° SE 02:19:26 10° E
Resurs 1-4 Rocket 2.5 02:11:35 10° N 02:16:39 50° WNW 02:20:23 18° SW
Cosmos 1437 Rocket 4.4 02:18:19 10° NW 02:20:54 18° W 02:21:54 16° WSW
Cosmos 2315 Rocket 4.4 02:18:05 18° SSW 02:22:48 53° WNW 02:29:02 10° N
SAR-Lupe-2 3.9 02:19:28 10° N 02:22:58 51° WNW 02:25:09 20° SW
NOSS 3-1 (A) 4.4 02:16:34 10° NW 02:23:43 47° WSW 02:31:58 10° S
Helios 1B rocket 4.2 02:20:53 10° NE 02:24:25 27° E 02:27:54 10° SSE
Cosmos 2074 Rocket 4.0 02:18:14 10° N 02:24:34 89° E 02:30:52 10° S
Cosmos 2219 Rocket 3.5 02:20:54 11° WSW 02:25:32 30° NW 02:30:28 10° NNE
NOSS 0 Rocket 4.1 02:22:49 17° SW 02:27:46 70° WNW 02:34:01 10° NNE
CZ-4C R/B 3.5 02:21:11 10° NW 02:27:58 40° WSW 02:35:40 10° S
MOS 1 Rocket 3.5 02:26:10 16° SSW 02:29:17 41° W 02:33:21 10° NNW
COSMOS 2428 3.7 02:26:02 13° WSW 02:30:40 37° NW 02:35:56 10° NNE
Cosmos 2184 Rocket 4.0 02:26:07 10° N 02:32:27 84° W 02:38:40 10° S
CZ-2C R/B 4.5 02:29:13 10° NE 02:33:32 26° E 02:37:45 10° SSE
Cosmos 304 Rocket 3.8 02:30:28 16° SSW 02:34:15 73° WNW 02:39:06 10° NNE
Cosmos 1269 Rocket 4.0 02:31:26 10° NNW 02:36:44 79° WSW 02:42:00 10° SSE
Cosmos 1455 2.0 02:37:27 10° NNW 02:41:10 82° W 02:44:52 10° S
Cosmos 2237 Rocket 2.4 02:39:10 14° SW 02:44:00 65° WNW 02:49:43 10° NNE
Cosmos 1544 Rocket 3.7 02:40:25 10° NNW 02:44:47 58° W 02:49:07 10° S
ADEOS II 2.4 02:39:55 10° N 02:45:02 53° WNW 02:49:42 12° SW
Cosmos 1025 Rocket 3.5 02:41:58 14° SSW 02:45:25 47° WNW 02:49:38 10° N
BREEZE-M DEB (TANK) 3.7 02:34:37 10° WSW 02:45:39 87° S 02:49:04 10° E
USA 308 3.7 02:42:41 14° SSW 02:45:57 39° SE 02:49:51 10° ENE
Lacrosse 5 3.4 02:48:45 10° S 02:53:02 28° SE 02:57:19 10° ENE
Cosmos 2297 3.9 02:47:21 10° NNW 02:53:09 81° ENE 02:58:54 10° SSE
IDEFIX/ARIANE 42P 3.0 02:51:30 10° N 02:56:36 51° WNW 03:01:41 10° SW
Cosmos 614 Rocket 4.3 02:51:43 10° NNW 02:56:55 73° ENE 03:02:06 10° SSE
USA 215 4.1 02:52:55 10° E 02:59:13 53° NNE 03:05:33 10° WNW
CZ-2D R/B 3.6 03:02:47 10° N 03:06:58 23° WNW 03:11:07 10° WSW
Cosmos 332 Rocket 4.3 03:02:46 10° SW 03:07:18 45° WNW 03:11:57 10° NNE
Cosmos 2278 Rocket 3.6 03:06:54 10° NW 03:10:51 20° W 03:14:46 10° SW
USA 305 3.0 03:09:12 10° SW 03:13:20 67° SSE 03:17:30 10° ENE
ERBS 2.6 03:14:23 10° SW 03:17:21 50° SE 03:20:22 10° ENE
Meteor 1-24 Rocket 4.4 03:13:46 10° SW 03:19:06 40° WNW 03:24:19 10° N
Cosmos 2333 Rocket 4.4 03:19:35 10° WNW 03:22:34 14° NNW 03:25:32 10° N
Nadezhda 1 Rocket 4.2 03:16:58 10° SSW 03:23:17 63° WNW 03:29:36 10° N
FENGYUN 3A 3.9 03:18:51 10° NNE 03:24:15 78° ESE 03:29:38 10° S
Cosmos 2341 Rocket 4.2 03:18:38 10° N 03:25:04 86° E 03:31:28 10° S
SL-16 R/B 2.3 03:21:14 10° SSW 03:26:54 83° WNW 03:32:38 10° NNE
